This is the latest recevied weather packets stored in our database for station/object KB1JL-13. If no packets are shown the sender has not sent any weather packets the latest 10 day(s).
| Time | Temp. | Humidity | Pressure | Rain* | Wind** | Luminosity | Snow |
|---|---|---|---|---|---|---|---|
| 1777757762 | 14.44° C | 60% | 1021.2 hPa | 0 mm | - | 291 W/m² | - |
| 1777757459 | 13.89° C | 62% | 1021.2 hPa | 0 mm | - | 212 W/m² | - |
| 1777757158 | 13.89° C | 63% | 1021.2 hPa | 0 mm | - | 239 W/m² | - |
| 1777756856 | 13.89° C | 63% | 1021.6 hPa | 0 mm | - | 125 W/m² | - |
| 1777756551 | 13.89° C | 63% | 1021.6 hPa | 0 mm | - | 93 W/m² | - |
| 1777756248 | 13.89° C | 60% | 1021.2 hPa | 0 mm | - | 95 W/m² | - |
| 1777755945 | 13.89° C | 60% | 1021.2 hPa | 0 mm | - | 124 W/m² | - |
| 1777755642 | 14.44° C | 62% | 1021.2 hPa | 0 mm | - | 144 W/m² | - |
| 1777755339 | 15° C | 57% | 1020.9 hPa | 0 mm | - | 193 W/m² | - |
| 1777755036 | 15° C | 62% | 1021.2 hPa | 0 mm | - | 488 W/m² | - |
| 1777754733 | 15° C | 60% | 1021.6 hPa | 0 mm | - | 347 W/m² | - |
| 1777754431 | 14.44° C | 64% | 1021.6 hPa | 0 mm | - | 333 W/m² | - |
| 1777754127 | 13.89° C | 62% | 1021.6 hPa | 0 mm | - | 526 W/m² | - |
| 1777753824 | 15° C | 63% | 1021.6 hPa | 0 mm | - | 276 W/m² | - |
| 1777753520 | 13.89° C | 63% | 1021.6 hPa | 0 mm | - | 392 W/m² | - |
| 1777753219 | 13.33° C | 68% | 1021.6 hPa | 0 mm | - | 233 W/m² | - |
| 1777752915 | 13.33° C | 64% | 1021.9 hPa | 0 mm | - | 225 W/m² | - |
| 1777752611 | 13.89° C | 66% | 1021.6 hPa | 0 mm | - | 252 W/m² | - |
| 1777752307 | 13.89° C | 66% | 1021.9 hPa | 0 mm | - | 387 W/m² | - |
| 1777752005 | 13.89° C | 66% | 1021.9 hPa | 0 mm | - | 275 W/m² | - |
| 1777751703 | 13.33° C | 71% | 1022.2 hPa | 0 mm | - | 261 W/m² | - |
| 1777751398 | 13.33° C | 70% | 1021.9 hPa | 0 mm | - | 275 W/m² | - |
| 1777751095 | 12.78° C | 71% | 1021.9 hPa | 0 mm | - | 254 W/m² | - |
| 1777750791 | 13.33° C | 70% | 1021.9 hPa | 0 mm | - | 244 W/m² | - |
| 1777750489 | 13.33° C | 71% | 1022.2 hPa | 0 mm | - | 335 W/m² | - |
* Rain latest hour (hover to see other rain measurements)
** Current wind speed in m/s (hover to see current wind gust speed)